Date String (YYYY-MM-DD hh:mm:ss) UTC,Instrument flags,absolute air pressure of the measurement (hPa),sample flow rate (lpm),inlet stack bypass flow (lpm),air temperature of the measurement (°C),ambient temperature measured by the external sensor (°C),aerosol sample conditioner tube jacket temperature (°C),OPC LED temperature (°C),internal box temperature (°C),relative humidity of the measurement (%),span deviation,mass concentration of particles derived from Lorenz-Mie calculation of OPC scattering (μg/m³),mass concentration of particles derived from Lorenz-Mie calculation of OPC scattering (μg/m³),mass concentration of particles derived from Lorenz-Mie calculation of OPC scattering (μg/m³)
DateTimeUTC,F1_M11,P_M11,Q1_M11,Q2_M11,T1_M11,T2_M11,T3_M11,T4_M11,T5_M11,U1_M11,ZSPAN_M11,X2_M11,X0_M11,X1_M11
2024-02-15 09:00:00,SystemResetWarning,0828.1,5.01,000.00,018.7,018.1,000.0,027.3,020.3,21.3,0000.1,0006.69,0009.19,0006.57
2024-02-15 09:01:00,SystemResetWarning,0828.1,5.00,000.00,018.7,018.1,000.0,027.3,020.3,21.3,0000.2,0006.70,0009.66,0006.59
2024-02-15 09:02:00,SystemResetWarning,0828.0,4.99,000.00,018.6,018.1,000.0,027.3,020.3,21.3,0000.0,0006.71,0010.11,0006.60
2024-02-15 09:03:00,SystemResetWarning,0828.0,4.99,000.00,018.6,018.1,000.0,027.2,020.3,21.3,-000.1,0006.71,0010.80,0006.61
2024-02-15 09:04:00,SystemResetWarning,0828.1,4.99,000.00,018.6,018.1,000.0,027.2,020.3,21.3,-000.3,0006.72,0011.10,0006.62
2024-02-15 09:05:00,SystemResetWarning,0828.1,5.00,000.00,018.6,018.1,000.0,027.2,020.3,21.3,-000.0,0006.72,0011.06,0006.64
2024-02-15 09:06:00,SystemResetWarning,0828.0,5.00,000.00,018.6,018.1,000.0,027.2,020.3,21.3,0000.2,0006.78,0011.08,0006.70
2024-02-15 09:07:00,SystemResetWarning,0828.1,5.00,000.00,018.6,018.0,000.0,027.2,020.2,21.3,0000.3,0006.85,0010.80,0006.76
2024-02-15 09:08:00,SystemResetWarning,0828.0,5.01,000.00,018.5,018.0,000.0,027.2,020.2,21.3,0000.3,0006.90,0010.57,0006.79
2024-02-15 09:09:00,SystemResetWarning,0828.0,5.01,000.00,018.5,018.0,000.0,027.2,020.2,21.3,-000.1,0006.92,0010.92,0006.81
2024-02-15 09:10:00,SystemResetWarning,0828.1,5.00,000.00,018.5,018.0,000.0,027.2,020.2,21.3,0000.2,0006.93,0011.39,0006.82
2024-02-15 09:11:00,SystemResetWarning,0828.1,5.00,000.00,018.5,018.0,000.0,027.1,020.2,21.3,0000.1,0006.92,0011.40,0006.81
2024-02-15 09:12:00,SystemResetWarning,0828.1,5.00,000.00,018.5,018.0,000.0,027.1,020.2,21.3,0000.6,0006.91,0010.90,0006.79
2024-02-15 09:13:00,SystemResetWarning,0828.0,5.00,000.00,018.5,018.0,000.0,027.1,020.2,21.3,0000.8,0006.88,0010.40,0006.78
2024-02-15 09:14:00,SystemResetWarning,0827.8,5.00,000.00,018.5,018.0,000.0,027.1,020.2,21.3,0000.6,0006.86,0009.66,0006.78
2024-02-15 09:15:00,SystemResetWarning,0827.8,5.01,000.00,018.5,018.0,000.0,027.1,020.2,21.3,0000.5,0006.85,0009.35,0006.76
2024-02-15 09:16:00,SystemResetWarning,0827.8,5.01,000.00,018.5,018.0,000.0,027.1,020.2,21.3,0000.3,0006.83,0009.37,0006.73
2024-02-15 09:17:00,SystemResetWarning,0828.0,4.99,000.00,018.5,018.0,000.0,027.1,020.2,21.3,0000.6,0006.80,0009.36,0006.71
2024-02-15 09:18:00,SystemResetWarning,0828.1,4.99,000.00,018.5,018.0,000.0,027.1,020.2,21.3,0000.1,0006.76,0009.34,0006.66
2024-02-15 09:19:00,SystemResetWarning,0828.1,5.01,000.00,018.5,018.0,000.0,027.1,020.2,21.3,-000.1,0006.76,0009.40,0006.66
2024-02-15 09:20:00,SystemResetWarning,0828.1,5.01,000.00,018.4,018.0,000.0,027.0,020.2,21.3,-000.4,0006.77,0009.93,0006.66
2024-02-15 09:21:00,SystemResetWarning,0828.0,5.00,000.00,018.4,018.0,000.0,027.0,020.2,21.3,-000.7,0006.79,0009.50,0006.69
2024-02-15 09:22:00,SystemResetWarning,0828.1,4.99,000.00,018.4,018.0,000.0,027.0,020.1,21.3,-000.8,0006.81,0009.50,0006.71
2024-02-15 09:23:00,SystemResetWarning,0828.1,5.00,000.00,018.4,018.0,000.0,027.0,020.1,21.3,-001.3,0006.82,0009.51,0006.71
2024-02-15 09:24:00,SystemResetWarning,0828.1,5.00,000.00,018.4,017.9,000.0,027.0,020.1,21.3,-001.3,0006.82,0009.58,0006.69
2024-02-15 09:25:00,SystemResetWarning,0828.1,5.00,000.00,018.4,017.9,000.0,027.0,020.1,21.3,-001.0,0006.80,0009.58,0006.67
2024-02-15 09:26:00,SystemResetWarning,0828.1,5.01,000.00,018.4,017.9,000.0,027.0,020.1,21.3,-000.5,0006.78,0009.55,0006.65
2024-02-15 09:27:00,SystemResetWarning,0828.1,5.01,000.00,018.4,017.9,000.0,027.0,020.1,21.3,-000.3,0006.75,0009.50,0006.63
2024-02-15 09:28:00,SystemResetWarning,0828.1,5.01,000.00,018.4,017.9,000.0,027.0,020.1,21.3,-000.5,0006.74,0010.49,0006.61
2024-02-15 09:29:00,SystemResetWarning,0828.1,5.00,000.00,018.4,017.9,000.0,027.0,020.1,21.3,-000.1,0006.70,0010.45,0006.58
2024-02-15 09:30:00,SystemResetWarning,0828.1,4.99,000.00,018.4,017.9,000.0,027.0,020.1,21.3,0000.7,0006.63,0010.31,0006.53
2024-02-15 09:31:00,SystemResetWarning,0828.1,4.99,000.00,018.4,017.9,000.0,026.9,020.1,21.2,0001.8,0006.58,0009.35,0006.49
2024-02-15 09:32:00,SystemResetWarning,0828.1,5.00,000.00,018.4,017.9,000.0,026.9,020.1,21.2,0001.8,0006.53,0009.28,0006.44
2024-02-15 09:33:00,SystemResetWarning,0828.1,5.00,000.00,018.3,017.9,000.0,026.9,020.1,21.2,0001.5,0006.48,0009.24,0006.40
2024-02-15 09:34:00,SystemResetWarning,0828.0,5.00,000.00,018.3,017.9,000.0,026.9,020.1,21.3,0001.9,0006.44,0009.17,0006.37
2024-02-15 09:35:00,SystemResetWarning,0828.0,5.01,000.00,018.3,017.9,000.0,026.9,020.1,21.3,0000.1,0006.41,0009.11,0006.35
2024-02-15 09:36:00,SystemResetWarning,0828.1,5.01,000.00,018.3,017.9,000.0,026.9,020.0,21.3,0000.0,0006.39,0009.08,0006.33
2024-02-15 09:37:00,SystemResetWarning,0828.1,4.99,000.00,018.3,017.9,000.0,026.9,020.1,21.3,0000.0,0006.37,0009.07,0006.32
2024-02-15 09:38:00,SystemResetWarning,0828.1,4.99,000.00,018.3,017.9,000.0,026.9,020.1,21.3,0000.2,0006.33,0009.02,0006.28
2024-02-15 09:39:00,SystemResetWarning,0828.1,5.00,000.00,018.3,017.9,000.0,026.9,020.0,21.4,0000.8,0006.28,0008.04,0006.24
2024-02-15 09:40:00,SystemResetWarning,0828.0,5.02,000.00,018.3,017.9,000.0,026.9,020.0,21.4,0000.3,0006.24,0007.93,0006.20
2024-02-15 09:41:00,SystemResetWarning,0828.1,4.99,000.00,018.3,017.9,000.0,026.9,020.0,21.4,0000.0,0006.23,0007.92,0006.18
2024-02-15 09:42:00,SystemResetWarning,0828.1,4.99,000.00,018.3,017.8,000.0,026.9,020.0,21.4,-000.8,0006.21,0007.95,0006.16
2024-02-15 09:43:00,SystemResetWarning,0828.1,5.01,000.00,018.3,017.8,000.0,026.9,020.0,21.4,-000.8,0006.21,0007.97,0006.15
2024-02-15 09:44:00,SystemResetWarning,0828.0,5.00,000.00,018.3,017.8,000.0,026.9,020.0,22.1,-000.0,0006.20,0008.01,0006.14
2024-02-15 09:45:00,SystemResetWarning,0828.0,5.00,000.00,018.3,017.8,000.0,026.9,020.0,24.6,0000.2,0006.21,0008.89,0006.14
2024-02-15 09:46:00,SystemResetWarning,0827.9,5.00,000.00,018.3,017.8,000.0,026.9,020.0,24.1,0000.5,0006.22,0008.87,0006.15
2024-02-15 09:47:00,SystemResetWarning,0827.8,5.01,000.00,018.3,017.8,000.0,026.9,020.0,22.3,0000.7,0006.23,0008.89,0006.17
2024-02-15 09:48:00,SystemResetWarning,0827.9,5.01,000.00,018.3,017.8,000.0,026.9,020.0,21.8,0000.5,0006.25,0008.93,0006.18
2024-02-15 09:49:00,SystemResetWarning,0827.8,5.00,000.00,018.3,017.8,000.0,026.9,020.0,21.7,0000.3,0006.28,0009.02,0006.20
2024-02-15 09:50:00,SystemResetWarning,0827.7,5.00,000.00,018.3,017.8,000.0,026.9,020.0,21.7,-000.1,0006.31,0009.07,0006.23
2024-02-15 09:51:00,SystemResetWarning,0827.7,5.00,000.00,018.3,017.8,000.0,026.9,020.0,21.6,0000.3,0006.35,0009.13,0006.26
2024-02-15 09:52:00,SystemResetWarning,0827.8,5.00,000.00,018.3,017.8,000.0,026.9,020.0,21.6,0000.4,0006.38,0009.17,0006.28
2024-02-15 09:53:00,SystemResetWarning,0827.9,4.99,000.00,018.3,017.8,000.0,026.9,020.0,21.7,0000.8,0006.41,0009.18,0006.32
2024-02-15 09:54:00,SystemResetWarning,0828.0,5.00,000.00,018.3,017.8,000.0,026.9,020.0,21.7,0000.9,0006.44,0009.26,0006.35
2024-02-15 09:55:00,SystemResetWarning,0827.9,5.00,000.00,018.3,017.8,000.0,026.8,020.0,21.6,0000.7,0006.50,0009.40,0006.40
2024-02-15 09:56:00,SystemResetWarning,0827.9,5.00,000.00,018.3,017.8,000.0,026.8,020.0,21.6,0000.8,0006.52,0008.67,0006.41
2024-02-15 09:57:00,SystemResetWarning,0827.8,5.00,000.00,018.3,017.8,000.0,026.8,020.0,21.6,0000.9,0006.53,0008.67,0006.42
2024-02-15 09:58:00,SystemResetWarning,0827.8,5.00,000.00,018.3,017.8,000.0,026.8,020.0,21.6,0001.0,0006.55,0009.04,0006.43
2024-02-15 09:59:00,SystemResetWarning,0827.8,5.00,000.00,018.3,017.8,000.0,026.8,020.0,21.6,0000.7,0006.56,0009.41,0006.44
